Regional Weather Roundup
Issued by NWS

Home | Current Version | Previous Version | Text Only | Print | Product List | Glossary Off
Versions: 1 2 3 4 5 6 7 8 9 10 11 12 13 14 15 16 17 18 19 20 21 22 23 24 25 26 27 28 29 30 31 32 33 34 35 36 37 38 39 40 41 42 43 44 45 46 47 48 49 50

000
ASUS43 KLOT 270603
RWRIL

ILLINOIS REGIONAL WEATHER ROUNDUP
NATIONAL WEATHER SERVICE CHICAGO/ROMEOVILLE IL
100 AM CDT WED JUL 27 2016

NOTE: "FAIR" INDICATES FEW OR NO CLOUDS BELOW 12,000 FEET WITH NO
SIGNIFICANT WEATHER AND/OR OBSTRUCTIONS TO VISIBILITY.

* THESE STATIONS ARE NOT UNDER NWS QUALITY CONTROL. THEY ALSO MAY NOT
  REPORT WEATHER SUCH AS PRECIPITATION OR FOG.

ILZ001-002-007-009-015-016-024-270700-
NORTHWEST ILLINOIS

CITY           SKY/WX    TMP DP  RH WIND       PRES   REMARKS
MOLINE         CLEAR     68  65  90 CALM      30.00F
6HR MIN TEMP:  68; 6HR MAX TEMP:  84;

STERLING*      CLEAR     67  67 100 CALM      30.01F
SAVANNA*       CLEAR     68  67  97 CALM      30.01S
$$

ILZ003-004-008-010-011-017-018-270700-
NORTH CENTRAL ILLINOIS

CITY           SKY/WX    TMP DP  RH WIND       PRES   REMARKS
ROCKFORD       CLEAR     68  65  90 CALM      30.02S
6HR MIN TEMP:  68; 6HR MAX TEMP:  84;

FREEPORT*      CLEAR     64  62  93 SW3       30.04S
ROCHELLE*      CLEAR     65  64  99 CALM      30.02F FOG
DE KALB*       CLEAR     68  64  86 CALM      30.02F
$$

ILZ005-006-012>014-019>023-270700-
NORTHEAST ILLINOIS

CITY           SKY/WX    TMP DP  RH WIND       PRES   REMARKS
CHICAGO-OHARE  CLEAR     74  63  68 SW3       30.00F
6HR MIN TEMP:  72; 6HR MAX TEMP:  83;

CHICAGO-MIDWAY CLEAR     77  61  57 CALM      30.00F
6HR MIN TEMP:  77; 6HR MAX TEMP:  84;

AURORA         CLEAR     69  66  90 CALM      30.01F
6HR MIN TEMP:  68; 6HR MAX TEMP:  83;

LANSING*       CLEAR     69  63  80 S3        30.01F
WAUKEGAN       CLEAR     67  64  90 CALM      30.00S
6HR MIN TEMP:  66; 6HR MAX TEMP:  80;

DUPAGE AIRPORT CLEAR     70  64  81 CALM      30.00F
6HR MIN TEMP:  70; 6HR MAX TEMP:  83;

KANKAKEE*      CLEAR     70  69  95 CALM      30.02F
WHEELING       CLEAR     71  64  78 CALM      30.01F
6HR MIN TEMP:  70; 6HR MAX TEMP:  82;

MORRIS*        CLEAR     70  67  90 CALM      30.00F
NORTHERLY ISL    N/A     75  63  66 CALM        N/A
$$

LMZ740>746-270700-
SOUTHERN LAKE MICHIGAN

STATION/POSITION SKY/WX   TEMP    WIND        PRES    VSBY  WAVE
                          AIR SEA DIR/SP/G                  HT/PER
                          (F)     (DEG/KT/KT) (MB)    (MI)  (FT/S)
SOUTHERN BUOY              75 76  200/  6/  6 1015.7          0
WILMETTE HARBOR            71 69  210/  2/  2   N/A           0
HARRISON CRIB              75     190/  8/  9   N/A
BURNHAM HARBOR             75     210/  1/  5   N/A
CALUMET HARBOR             75     140/  1/  3 1015.7F
BURNS HARBOR               75     170/  2/  4 1016.9S
MICHIGAN CITY              73     130/  2/  3   N/A
MICHIGAN CITY 6N           75 77  160/  6/  6   N/A           0
ST. JOSEPH                 75 78  170/  2/  4 1016.2R         0
$$

ILZ025>027-034>036-040-047-049-050-058-095>099-270700-
WEST-CENTRAL ILLINOIS

CITY           SKY/WX    TMP DP  RH WIND       PRES   REMARKS
QUINCY         MOCLDY    73  70  90 NE3       30.00S
GALESBURG*     CLEAR     67  65  92 CALM      30.02S
MACOMB*        CLEAR     67  66  96 CALM      30.03S
JACKSONVILLE*  MOCLDY    73  70  90 CALM      30.00F
PITTSFIELD*    PTCLDY    74  72  94 CALM      30.01F
$$

ILZ028>032-037-038-041>044-048-051>054-059>061-270700-
CENTRAL ILLINOIS

CITY           SKY/WX    TMP DP  RH WIND       PRES   REMARKS
PONTIAC        CLEAR     70  70 100 CALM      30.03S FOG
BLOOMINGTON    CLEAR     72  68  87 CALM      30.03F
DECATUR        CLEAR     69  66  90 CALM      30.02F
PEORIA         CLEAR     74  71  91 CALM      30.01S
6HR MIN TEMP:  73; 6HR MAX TEMP:  85;

LACON*         CLEAR     70  68  94 CALM      30.00F
LINCOLN*       CLEAR     69  69  97 CALM      30.01S
SPRINGFIELD    CLOUDY    74  70  87 E5        30.01F
6HR MIN TEMP:  73; 6HR MAX TEMP:  84;

TAYLORVILLE    PTCLDY    71  69  93 MISG      30.00F
6HR MIN TEMP:  71; 6HR MAX TEMP:  82;

$$

ILZ033-039-045-046-055>057-062-063-270700-
EAST-CENTRAL ILLINOIS

CITY           SKY/WX    TMP DP  RH WIND       PRES   REMARKS
CHAMPAIGN      CLEAR     69  65  86 E6        30.02F
MATTOON        PTCLDY    70  66  87 CALM      30.00F
PARIS*         CLEAR     67  67 100 CALM      30.02F
$$

ILZ079-100>102-270700-
SOUTHWEST ILLINOIS

CITY           SKY/WX    TMP DP  RH WIND       PRES   REMARKS
ALTON          PTCLDY    73  73  97 CALM      29.99S
BELLEVILLE     PTCLDY    75  75 100 S3        29.96F
CAHOKIA*       PTCLDY    76  74  93 S5        29.97F
SPARTA*        PTCLDY    73  72  98 CALM      29.99F
$$

ILZ064>066-069>071-074>076-080>082-084>086-088>090-092>094-270700-
SOUTH-CENTRAL ILLINOIS

CITY           SKY/WX    TMP DP  RH WIND       PRES   REMARKS
CARBONDALE     CLEAR     75  73  93 CALM      29.99F
6HR MIN TEMP:  74; 6HR MAX TEMP:  77;

CAIRO*         PTCLDY    73  73 100 CALM      29.97S
EFFINGHAM*     PTCLDY    72  72 100 E3        30.01F
MARION         CLEAR     75  75 100 CALM      30.00S FOG
MT. VERNON     PTCLDY    73  70  88 MISG      29.99F
CENTRALIA*     MOCLDY    76  75  98 CALM      29.98F
SALEM*         CLOUDY    76  74  93 CALM      29.99F FOG
METROPOLIS*    PTCLDY    74  73  99 CALM      29.98F FOG
$$

ILZ067-068-072-073-078-083-087-091-270700-
SOUTHEAST ILLINOIS

CITY           SKY/WX    TMP DP  RH WIND       PRES   REMARKS
LAWRENCEVILLE  PTCLDY    75  73  93 CALM      29.99F
FLORA*         PTCLDY    76  75  95 CALM      29.99F
FAIRFIELD*     CLEAR     74  74 100 CALM      29.97F
HARRISBURG*    FOG       73  73 100 CALM      29.99S VSB 1/4
ROBINSON*      PTCLDY    70  70 100 CALM      30.01S FOG
CARMI*         FOG       73  73 100 CALM      29.98S VSB 1
$$

ABBREVIATIONS USED IN REMARKS
   TC - TEMPERATURE IN CELSIUS
  WCI - WIND CHILL INDEX
   HX - HEAT INDEX
  VSB - VISIBILITY
$$




USA.gov is the U.S. government's official web portal to all federal, state and local government web resources and services.